Hourly Data Report for October 17, 2014

All times are specified in Local Standard Time (LST). Add 1 hour to adjust for Daylight Saving Time where and when it is observed.

WINNIPEG A CS
MANITOBA

49°55'00.000" N
97°14'58.000" W
238.70 m
502S001
71849
XWG

Download Data

Hourly Data (October 2014)
Hourly Data Report for October 17, 2014
Temp Definition
°C
Dew Point Temp Definition
°C
Rel Hum Definition
%
Wind Dir Definition
10's deg

Wind Spd Definition
km/h
Visibility Definition
km
Stn Press Definition
kPa
Hmdx Definition


Wind Chill Definition


Weather Definition


TIME
00:00 6.4 5.2 92 36 34   98.15     LegendNANA
01:00 5.7 4.3 91 36 35   98.27     LegendNANA
02:00 5.8 4.3 90 1 29   98.32     LegendNANA
03:00 5.6 4.1 90 36 34   98.41     LegendNANA
04:00 5.4 3.8 89 36 30   98.52     LegendNANA
05:00 5.2 3.4 88 36 30   98.60     LegendNANA
06:00 5.0 2.8 86 1 33   98.71     LegendNANA
07:00 4.6 2.2 85 36 36   98.83     LegendNANA
08:00 4.7 1.5 80 36 26   98.95     LegendNANA
09:00 4.8 1.7 80 1 36   99.00     LegendNANA
10:00 5.4 2.6 82 36 30   99.07     LegendNANA
11:00 5.8 2.6 80 1 32   99.09     LegendNANA
12:00 6.2 2.5 77 36 30   99.13     LegendNANA
13:00 6.8 2.3 73 2 30   99.17     LegendNANA
14:00 6.7 2.3 73 1 28   99.21     LegendNANA
15:00 6.3 1.9 73 1 27   99.28     LegendNANA
16:00 6.0 2.0 76 3 28   99.34     LegendNANA
17:00 5.9 1.5 73 3 23   99.38     LegendNANA
18:00 5.9 1.6 74 3 21   99.41     LegendNANA
19:00 5.2 1.5 77 1 14   99.47     LegendNANA
20:00 5.5 1.6 76 1 17   99.48     LegendNANA
21:00 5.4 1.5 76 35 15   99.50     LegendNANA
22:00 5.3 1.4 76 36 13   99.51     LegendNANA
23:00 5.1 1.4 77 3 12   99.47     LegendNANA

Notes on Data Quality.

Legend

  • E = Estimated
  • M = Missing
  • NA = Not Available
  • ‡ = Partner data that is not subject to review by the National Climate Archives
Date modified: